Boise, ID

9:18 AM MDT on August 24, 2016 (GMT -0600)
Boise Air Term

Weather History for KBOI - April, 2014

Change the Weather History Date:

Saturday, April 26, 2014

  Actual Average Record
Temperature  
Mean Temperature 46 °F 53 °F  
Max Temperature 55 °F 65 °F 92 °F (1898)
Min Temperature 37 °F 41 °F 24 °F (1985)
Degree Days  
Heating Degree Days 19 12  
Month to date heating degree days 363 384  
Since 1 July heating degree days 5291 5179  
Cooling Degree Days 0 0  
Month to date cooling degree days 0 0  
Year to date cooling degree days 0 0  
Moisture  
Dew Point 31 °F    
Average Humidity 59    
Maximum Humidity 85    
Minimum Humidity 32    
Precipitation  
Precipitation 0.00 in 0.04 in 1.09 in (2012)
Month to date precipitation 1.86 1.06  
Year to date precipitation 7.21 4.68  
Snow  
Snow 0.00 in 0.00 in 0.90 in (1900)
Month to date snowfall 0.0 0.3  
Since 1 July snowfall 14.4 19.2  
Snow Depth 0.00 in    
Sea Level Pressure  
Sea Level Pressure 29.69 in    
Wind  
Wind Speed 11 mph (NW)    
Max Wind Speed 24 mph    
Max Gust Speed 31 mph    
Visibility 10 miles    
Events      
T = Trace of Precipitation, MM = Missing Value Source: NWS Daily Summary

Daily Weather History Graph

Daily Weather History Graph

Search for Another Location

Airport or City:

Trip Planner

Search our weather history database for the weather conditions in past years. The results will help you decide how hot, cold, wet, or windy it might be!

Date:

Astronomy

Apr. 26, 2014 Rise Set
Actual Time 6:44 AM MDT 8:41 PM MDT
Civil Twilight 6:13 AM MDT 9:12 PM MDT
Nautical Twilight 5:36 AM MDT 9:50 PM MDT
Astronomical Twilight 4:55 AM MDT 10:31 PM MDT
Moon 5:17 AM MDT (4/26) 6:10 PM MDT (4/26)
Length of Visible Light 14h 58m
Length of Day
13h 56m
Waning Crescent, 8% of the Moon is Illuminated
Apr 26
Waning Crescent
Apr 29
New
May 6
First Quarter
May 14
Full
May 21
Last Quarter

Hourly Weather History & Observations

Time (MDT) Temp. Windchill Dew Point Humidity Pressure Visibility Wind Dir Wind Speed Gust Speed Precip Events Conditions
12:53 AM 41.0 °F 34.7 °F 35.1 °F 79% 29.62 in 10.0 mi NW 10.4 mph - N/A   Clear
1:53 AM 39.9 °F 37.8 °F 34.0 °F 79% 29.65 in 10.0 mi West 3.5 mph - N/A   Clear
2:53 AM 39.0 °F 33.4 °F 34.0 °F 82% 29.65 in 10.0 mi WNW 8.1 mph - N/A   Partly Cloudy
3:53 AM 37.9 °F 33.5 °F 34.0 °F 86% 29.66 in 10.0 mi NW 5.8 mph - N/A   Clear
4:09 AM 37.4 °F 32.1 °F 33.8 °F 87% 29.65 in 10.0 mi NW 6.9 mph - N/A   Mostly Cloudy
4:31 AM 37.4 °F 30.3 °F 33.8 °F 87% 29.65 in 10.0 mi WNW 10.4 mph - N/A   Mostly Cloudy
4:53 AM 37.9 °F 30.5 °F 34.0 °F 86% 29.66 in 10.0 mi WNW 11.5 mph - N/A   Overcast
5:53 AM 37.0 °F 29.3 °F 33.1 °F 86% 29.66 in 10.0 mi WNW 11.5 mph - N/A   Overcast
6:53 AM 37.0 °F 29.3 °F 32.0 °F 82% 29.68 in 10.0 mi WNW 11.5 mph - N/A   Mostly Cloudy
7:53 AM 37.9 °F 31.5 °F 32.0 °F 79% 29.68 in 10.0 mi NW 9.2 mph - N/A   Clear
8:53 AM 41.0 °F 33.5 °F 33.1 °F 73% 29.68 in 10.0 mi WNW 13.8 mph - N/A   Clear
10:53 AM 46.0 °F 39.0 °F 35.1 °F 66% 29.69 in 10.0 mi NW 17.3 mph 23.0 mph N/A   Partly Cloudy
11:53 AM 46.9 °F - 34.0 °F 61% 29.69 in 10.0 mi NNW 15.0 mph - N/A   Clear
12:53 PM 50.0 °F - 33.1 °F 52% 29.68 in 10.0 mi NW 17.3 mph 25.3 mph N/A   Mostly Cloudy
1:53 PM 51.1 °F - 30.9 °F 46% 29.68 in 10.0 mi NNW 18.4 mph 26.5 mph N/A   Mostly Cloudy
2:53 PM 53.1 °F - 30.9 °F 43% 29.68 in 10.0 mi NW 19.6 mph 25.3 mph N/A   Mostly Cloudy
3:53 PM 54.0 °F - 26.1 °F 34% 29.68 in 10.0 mi WNW 19.6 mph 28.8 mph N/A   Scattered Clouds
4:53 PM 54.0 °F - 27.0 °F 35% 29.69 in 10.0 mi WNW 15.0 mph 24.2 mph N/A   Mostly Cloudy
5:53 PM 54.0 °F - 24.1 °F 31% 29.69 in 10.0 mi WNW 16.1 mph - N/A   Scattered Clouds
6:53 PM 53.1 °F - 27.0 °F 37% 29.70 in 10.0 mi WNW 18.4 mph 24.2 mph N/A   Mostly Cloudy
7:53 PM 51.1 °F - 26.1 °F 38% 29.71 in 10.0 mi NW 10.4 mph - N/A   Clear
8:53 PM 48.0 °F - 25.0 °F 41% 29.72 in 10.0 mi NNW 8.1 mph - N/A   Partly Cloudy
9:53 PM 46.9 °F - 27.0 °F 46% 29.74 in 10.0 mi NW 3.5 mph - N/A   Clear
10:53 PM 45.0 °F - 28.0 °F 52% 29.76 in 10.0 mi Calm Calm - N/A   Clear
11:53 PM 41.0 °F - 28.9 °F 62% 29.78 in 10.0 mi Calm Calm - N/A   Clear